Location: Unspecified
(49.2170°N, 0.0000°E)
Time: 07:28:25
(UTC+00:00)

Transit 2A - Pass Details

Date: 19 June 2019
Orbit: 594 x 965 km, 66.7° (Epoch: 17 July)

Event Time Altitude Azimuth Distance (km) Brightness Sun altitude
Rises 05:38:15 0° 305° (NW) 3,624 9.1 13.9°
Reaches altitude 10° 05:42:14 10° 329° (NNW) 2,633 8.7 14.5°
Maximum altitude 05:45:30 15° 1° (N) 2,270 8.8 15.1°
Drops below altitude 10° 05:48:39 10° 34° (NNE) 2,523 9.6 15.5°
Sets 05:52:19 0° 58° (ENE) 3,378 10.9 16.1°
